Regional Weather Roundup
Issued by NWS State College, PA

Home | Current Version | Previous Version | Text Only | Print | Product List | Glossary On
Versions: 1 2 3 4 5 6 7 8 9 10 11 12 13 14 15 16 17 18 19 20 21 22 23 24 25 26 27 28 29 30 31 32 33 34 35 36 37 38 39 40 41 42 43 44 45 46 47 48 49 50
000
ASUS41 KCTP 290410
RWRCTP

REGIONAL WEATHER ROUNDUP
NATIONAL WEATHER SERVICE STATE COLLEGE PA
1200 AM EDT SAT JUL 29 2017

Note: "fair" indicates few or no clouds below 12,000 feet with no
significant weather and/or obstructions to visibility.

* = STATION THAT DOES NOT REPORT PRECIPITATION /E.G. RAIN...SNOW...ETC/
    THUNDER OR FOG.

PAZ002>004-007>009-013>016-020>023-029>032-290500-
WESTERN PENNSYLVANIA

CITY           SKY/WX    TMP DP  RH WIND       PRES   REMARKS
ERIE           CLOUDY    64  45  49 E14       29.94R
MEADVILLE      CLOUDY    62  53  72 NE15      29.93R
FRANKLIN*      CLOUDY    63  54  72 NE12G18   29.92R
NEW CASTLE     LGT RAIN  67  59  75 N7        29.90R
BEAVER COUNTY  NOT AVBL
BUTLER*        CLOUDY    64  63  94 NE10      29.89R
PITTSBURGH INT RAIN      65  64  97 E8        29.86R FOG
PITTSBURGH     TSTM      62  59  90 N13G29    29.83F VSB 1
INDIANA*       CLOUDY    64  64 100 E10       29.88R
LATROBE        CLOUDY    64  64 100 N7        29.84R
WASHINGTON CO* CLOUDY    64  61  88 NE13      29.85R
$$

PAZ004>006-010>012-017>019-024>028-033>037-041-042-045-046-049>053-290500-
CENTRAL PENNSYLVANIA

CITY           SKY/WX    TMP DP  RH WIND       PRES   REMARKS
BRADFORD       CLOUDY    58  47  66 E9G16     29.95R
DUBOIS         CLOUDY    64  54  69 NE14      29.89R
CLEARFIELD     CLOUDY    65  57  75 NE10G21   29.88S
JOHNSTOWN      LGT RAIN  62  62 100 NE12      29.83F
ALTOONA        RAIN      63  63 100 N9        29.84S FOG
STATE COLLEGE  DRIZZLE   63  62  96 NE7       29.87R
WILLIAMSPORT   CLOUDY    70  57  63 NE8       29.85R
SELINSGROVE    LGT RAIN  68  67  96 NW3       29.85R FOG
FT INDIANTOWN  TSTM      68  68 100 N7        29.80F VSB 1
CAPITAL CITY   HVY RAIN  70  66  87 N3        29.78F FOG
HARRISBURG     TSTM      70  69  97 N7        29.77F FOG
YORK           RAIN      67  67 100 N5        29.79F FOG
$$

PAZ038>040-043-044-047-048-054-055-060>062-067>071-290500-
EASTERN PENNSYLVANIA

CITY           SKY/WX    TMP DP  RH WIND       PRES   REMARKS
SCRANTON       CLOUDY    71  60  68 N8        29.87R
MOUNT POCONO   CLOUDY    65  64  97 NE9       29.88S
ALLENTOWN      CLOUDY    74  65  73 NE9       29.80S
QUAKERTOWN*    CLOUDY    73  66  78 NE3       29.80S
READING        LGT RAIN  70  70 100 NW3       29.78S
LANCASTER      LGT RAIN  70  70 100 NW3       29.77F FOG
COATESVILLE    DRIZZLE   72  72 100 CALM      29.78F
POTTSTOWN      CLOUDY    73  69  87 E6        29.79F
BLUE BELL      CLOUDY    72  70  94 NE3       29.78F
DOYLESTOWN     CLOUDY    73  68  84 N3        29.78F
WILLOW GROVE   NOT AVBL
NORTH PHILA    LGT RAIN  76  70  82 E8        29.77F
PHILADELPHIA   CLOUDY    74  69  85 NE8       29.74F
$$




USA.gov is the U.S. government's official web portal to all federal, state and local government web resources and services.